Regional Weather Roundup
Issued by NWS Upton, NY

Current Version | Previous Version | Text Only | Print | Product List | Glossary Off
Versions: 1 2 3 4 5 6 7 8 9 10 11 12 13 14 15 16 17 18 19 20 21 22 23 24 25 26 27 28 29 30 31 32 33 34 35 36 37 38 39 40 41 42 43 44 45 46 47 48 49 50
000 ASUS41 KOKX 200505 RWROKX REGIONAL WEATHER ROUNDUP NATIONAL WEATHER SERVICE NEW YORK NY 1200 AM EST SAT DEC 20 2014 NOTE: "FAIR" INDICATES FEW OR NO CLOUDS BELOW 12,000 FEET WITH NO SIGNIFICANT WEATHER AND/OR OBSTRUCTIONS TO VISIBILITY. NYZ071-072-176-178-NJZ106-104-200600- NEW YORK CITY METRO AREA CITY SKY/WX TMP DP RH WIND PRES REMARKS CENTRAL PARK CLOUDY 32 20 61 NW5 30.21R WCI 27 LAGUARDIA APRT CLOUDY 33 22 63 NW12 30.20R WCI 24 KENNEDY INTL MOCLDY 33 21 61 N14 30.21R WCI 23 NEWARK/LIBERTY CLOUDY 32 21 64 NW9 30.20R WCI 24 BRNX BOT. GARD N/A N/A N/A N/A NW3 30.22R TETERBORO CLOUDY 32 21 64 NW7 30.20R WCI 26 $$ NYZ177-179-078>081-200600- LONG ISLAND NEW YORK CITY SKY/WX TMP DP RH WIND PRES REMARKS FARMINGDALE CLEAR 31 20 63 NW5 30.19R WCI 26 ISLIP PTCLDY 30 20 66 N7 30.16R WCI 23 SHIRLEY PTCLDY 29 21 72 NW5 30.18R WCI 24 WESTHAMPTON CLOUDY 32 22 66 N6 30.18R WCI 26 MONTAUK POINT N/A 35 23 61 N7 30.15R WCI 29 $$ NYZ052-065-067-200600- HUDSON VALLEY CITY SKY/WX TMP DP RH WIND PRES REMARKS WHITE PLAINS CLEAR 28 20 71 NW10 30.17R WCI 19 NEWBURGH CLOUDY 27 23 86 CALM 30.19R MONTGOMERY CLOUDY 27 23 85 NE3 30.18R POUGHKEEPSIE CLOUDY 27 21 78 CALM 30.20R ALBANY CLOUDY 27 18 69 NW7 30.22R WCI 19 $$ NJZ001-105-106-008-010-013-015-019>022-104-200600- NEW JERSEY CITY SKY/WX TMP DP RH WIND PRES REMARKS NEWARK/LIBERTY CLOUDY 32 21 64 NW9 30.20R WCI 24 TETERBORO CLOUDY 32 21 64 NW7 30.20R WCI 26 CALDWELL CLOUDY 31 21 66 NW6 30.20R WCI 25 MORRISTOWN CLOUDY 34 21 60 N7 30.20S WCI 28 SOMERVILLE CLOUDY 33 21 61 NW9 30.19S WCI 25 SUSSEX MOCLDY 29 20 69 VRB5 30.19R WCI 24 ANDOVER N/A 29 20 69 N9 30.18S WCI 20 TRENTON CLOUDY 32 20 61 NW5 30.19S WCI 27 MILLVILLE CLEAR 22 20 92 CALM 30.21S ATLANTIC CITY CLEAR 25 19 78 NW3 30.21S WRIGHTSTOWN CLOUDY 29 21 72 NW6 30.17F WCI 23 TOMS RIVER CLOUDY 30 21 69 NW3 30.20S BELMAR CLOUDY 30 18 59 NW10 30.19S WCI 21 $$ PAZ047>061-062-071-200600- EASTERN PENNSYLVANIA CITY SKY/WX TMP DP RH WIND PRES REMARKS PHILADELPHIA CLOUDY 34 20 56 VRB5 30.22S WCI 30 ALLENTOWN CLOUDY 32 22 66 NW5 30.19S WCI 27 SCRANTON CLOUDY 29 20 69 N8G20 30.19S WCI 21 $$ CTZ002-004>006-009-010-012-RIZ004-006-007-MAZ004-011-015-200600- SOUTHERN NEW ENGLAND IN CT CITY SKY/WX TMP DP RH WIND PRES REMARKS BRADLEY INTL PTCLDY 27 19 72 N8 30.16R WCI 19 HARTFORD PTCLDY 29 20 69 N8 30.17R WCI 21 DANBURY CLOUDY 29 18 63 N9 30.18R WCI 20 WTRBRY/OXFORD CLOUDY 27 16 63 N3 30.15R BRIDGEPORT FAIR 30 21 69 NW6 30.19R WCI 24 MERIDEN CLOUDY 29 20 69 NW5 30.17R WCI 24 NEW HAVEN CLOUDY 33 20 58 NW8 30.18R WCI 26 CHESTER CLOUDY 30 23 74 NW6 30.15R WCI 24 GROTON CLOUDY 30 22 72 NW5 30.15R WCI 25 WILLIMANTIC PTCLDY 28 21 75 W3 30.15R IN RI CITY SKY/WX TMP DP RH WIND PRES REMARKS PROVIDENCE PTCLDY 29 20 69 N6 30.15R WCI 23 BLOCK ISLAND MOCLDY 34 19 55 N9 30.13R WCI 26 WESTERLY CLEAR 30 22 72 CALM 30.15R IN MA CITY SKY/WX TMP DP RH WIND PRES REMARKS BOSTON CLEAR 29 20 69 NW9 30.15R WCI 20 WORCESTER CLEAR 23 18 81 NW6 30.10R WCI 16 WESTFIELD FAIR 25 19 78 N6 30.16R WCI 18 PROVINCETOWN CLOUDY 36 28 75 NW10 30.12R WCI 28 NANTUCKET CLOUDY 37 27 67 NW12 30.10R WCI 29 $$ ANZ330-335-338-340-345-350-353-355-200600- COASTAL MARINE OBSERVATIONS STATION/POSITION TIME SKY/WX TEMP WIND PRES VSBY WAVE AIR SEA DIR/SP/G HT/PER (UTC) (F) (DEG/KT/KT) (MB) (MI) (FT/S) NY HARB ENTRANCE 0500 35 46 330/ 12/ 16 1022.6 1/ 3 4S FIRE IS 0500 46 N/A 2/ 4 20S FIRE ISLAND 0400 37 49 1021.7 2/ 4 23SW MTP 0500 N/A 2/ 3 HUDSON CANYON 0500 39 54 320/ 10/ 14 1020.9 3/ 6 EXECUTION ROCKS 0500 33 42 320/ 8/ 12 N/A WESTERN LI SOUND 0500 33 330/ 8/ 12 N/A 0 CENTRAL LI SOUND 0500 32 44 330/ 10/ 14 N/A 1/ 3 EASTERN LI SOUND NOT AVBL ROBBINS REEF 0500 32 110/ 4/ 13 1021.4 $$ >>>>>>>>>>>>>>>>>>>>>>>>>>>> KEY <<<<<<<<<<<<<<<<<<<<<<<<<<< > < > SKY/WX - SKY CONDITION/PRESENT WEATHER < > TMP - TEMPERATURE IN FAHRENHEIT < > DP - DEWPOINT IN FAHRENHEIT < > RH - RELATIVE HUMIDITY IN PERCENT < > WIND - DIRECTION AND SPEED IN MPH < > PRES - MEAN SEA LEVEL PRESSURE IN INCHES OF HG < > WCI - WIND CHILL INDEX < > VSB - VISIBILITY IN MILES < > HX - HEAT INDEX < > TC - TEMPERATURE IN CELSIUS < > VRB - VARIABLE WIND DIRECTION < > < >>>>>>>>>>>>>>>>>>>>>>>>>>>> KEY <<<<<<<<<<<<<<<<<<<<<<<<<<<

USA.gov is the U.S. government's official web portal to all federal, state and local government web resources and services.